NRT457 KDFW-KICT

Flight info

Callsign NRT457
Flight time 1h 1m
Altitude 21000
Route BLECO8 ZEMMA HUSKA
Aircraft B77L/H-SDE1E2E3FGHIJ2J3J4J5M1RWXY/LB1D1

Departure

Time 2026-04-26 13:15
Airport Dallas Fort Worth International Airport (KDFW)

Arrival

Time 2026-04-26 14:17
Airport Wichita Dwight D. Eisenhower National Airport (KICT)
Time Latitude Longitude Altitude Speed Heading
2026-04-26 12:51 32.91534 -97.02050 558 ft 0 kts 46°
2026-04-26 13:02 32.91535 -97.02050 558 ft 0 kts 46°
2026-04-26 13:05 32.91534 -97.02050 558 ft 0 kts 46°
2026-04-26 13:06 32.91532 -97.02053 558 ft 0 kts 46°
2026-04-26 13:06 32.91523 -97.02063 558 ft 2 kts 37°
2026-04-26 13:06 32.91510 -97.02071 558 ft 2 kts 19°
2026-04-26 13:07 32.91495 -97.02076 559 ft 2 kts
2026-04-26 13:07 32.91481 -97.02076 559 ft 2 kts 351°
2026-04-26 13:07 32.91466 -97.02071 558 ft 2 kts 336°
2026-04-26 13:07 32.91453 -97.02062 558 ft 2 kts 321°
2026-04-26 13:08 32.91448 -97.02056 558 ft 0 kts 315°
2026-04-26 13:08 32.91447 -97.02056 558 ft 0 kts 315°
2026-04-26 13:08 32.91448 -97.02056 558 ft 0 kts 315°
2026-04-26 13:11 32.91473 -97.02086 559 ft 10 kts 315°
2026-04-26 13:12 32.91551 -97.02163 560 ft 17 kts 323°
2026-04-26 13:12 32.91661 -97.02270 560 ft 20 kts 310°
2026-04-26 13:12 32.91672 -97.02380 561 ft 13 kts 215°
2026-04-26 13:12 32.91586 -97.02406 563 ft 12 kts 216°
2026-04-26 13:13 32.91556 -97.02522 566 ft 17 kts 268°
2026-04-26 13:13 32.91552 -97.02685 570 ft 22 kts 268°
2026-04-26 13:13 32.91551 -97.02792 572 ft 0 kts 271°
2026-04-26 13:14 32.91553 -97.02815 573 ft 7 kts 275°
2026-04-26 13:14 32.91559 -97.02911 575 ft 12 kts 272°
2026-04-26 13:14 32.91512 -97.02983 576 ft 13 kts 194°
2026-04-26 13:14 32.91317 -97.02989 579 ft 69 kts 179°
2026-04-26 13:15 32.90416 -97.03006 659 ft 176 kts 179°
2026-04-26 13:15 32.89044 -97.03030 1545 ft 213 kts 178°
2026-04-26 13:15 32.87716 -97.03000 3643 ft 198 kts 180°
2026-04-26 13:15 32.86837 -97.02974 4618 ft 200 kts 181°
2026-04-26 13:16 32.84889 -97.02563 6147 ft 232 kts 165°
2026-04-26 13:16 32.83322 -97.01839 7332 ft 251 kts 162°
2026-04-26 13:16 32.81663 -97.01062 8562 ft 266 kts 163°
2026-04-26 13:16 32.79913 -97.00235 9876 ft 278 kts 159°
2026-04-26 13:17 32.77270 -96.96604 12297 ft 316 kts 114°
2026-04-26 13:17 32.76591 -96.94100 13516 ft 326 kts 99°
2026-04-26 13:18 32.76794 -96.88500 15606 ft 357 kts 72°
2026-04-26 13:18 32.77777 -96.85773 16663 ft 366 kts 54°
2026-04-26 13:18 32.81456 -96.81731 19159 ft 363 kts 20°
2026-04-26 13:19 32.83821 -96.80728 20227 ft 353 kts
2026-04-26 13:19 32.86288 -96.80411 20736 ft 342 kts 353°
2026-04-26 13:19 32.88660 -96.80592 20836 ft 342 kts 349°
2026-04-26 13:19 32.91002 -96.80766 20841 ft 339 kts 351°
2026-04-26 13:20 32.93422 -96.80856 20849 ft 354 kts 352°
2026-04-26 13:20 32.96006 -96.80906 20838 ft 363 kts 351°
2026-04-26 13:20 32.98484 -96.81335 20839 ft 360 kts 340°
2026-04-26 13:20 33.00850 -96.82347 20836 ft 356 kts 329°
2026-04-26 13:21 33.03067 -96.83704 20840 ft 351 kts 327°
2026-04-26 13:21 33.04539 -96.84634 20838 ft 350 kts 327°
2026-04-26 13:21 33.07396 -96.86459 20836 ft 349 kts 326°
2026-04-26 13:21 33.09553 -96.87849 20836 ft 349 kts 326°
2026-04-26 13:22 33.11700 -96.89233 20836 ft 347 kts 326°
2026-04-26 13:22 33.13883 -96.90645 20841 ft 348 kts 326°
2026-04-26 13:22 33.16021 -96.92027 20842 ft 349 kts 326°
2026-04-26 13:22 33.18149 -96.93405 20841 ft 349 kts 326°
2026-04-26 13:23 33.20312 -96.94807 20840 ft 350 kts 326°
2026-04-26 13:23 33.22468 -96.96204 20837 ft 349 kts 326°
2026-04-26 13:23 33.24610 -96.97593 20831 ft 349 kts 326°
2026-04-26 13:23 33.26736 -96.98972 20831 ft 348 kts 326°
2026-04-26 13:24 33.28889 -97.00371 20828 ft 349 kts 326°
2026-04-26 13:24 33.31038 -97.01767 20822 ft 349 kts 326°
2026-04-26 13:24 33.33184 -97.03162 20821 ft 349 kts 326°
2026-04-26 13:24 33.35340 -97.04564 20818 ft 349 kts 326°
2026-04-26 13:25 33.37484 -97.05959 20817 ft 348 kts 326°
2026-04-26 13:25 33.39632 -97.07358 20817 ft 349 kts 326°
2026-04-26 13:25 33.41785 -97.08758 20813 ft 350 kts 327°
2026-04-26 13:25 33.44066 -97.09872 20814 ft 356 kts 338°
2026-04-26 13:26 33.46544 -97.10442 20814 ft 360 kts 349°
2026-04-26 13:26 33.49151 -97.10418 20823 ft 372 kts 358°
2026-04-26 13:26 33.51736 -97.10099 20823 ft 373 kts 359°
2026-04-26 13:26 33.54306 -97.09763 20821 ft 373 kts 360°
2026-04-26 13:27 33.56955 -97.09418 20821 ft 373 kts 359°
2026-04-26 13:27 33.59555 -97.09084 20827 ft 372 kts 359°
2026-04-26 13:27 33.62165 -97.08749 20825 ft 373 kts 359°
2026-04-26 13:27 33.64761 -97.08419 20830 ft 374 kts 359°
2026-04-26 13:28 33.67382 -97.08086 20829 ft 373 kts 359°
2026-04-26 13:28 33.70016 -97.07750 20818 ft 372 kts 359°
2026-04-26 13:28 33.72590 -97.07423 20820 ft 374 kts 359°
2026-04-26 13:28 33.75208 -97.07090 20815 ft 373 kts 359°
2026-04-26 13:29 33.77825 -97.06757 20812 ft 373 kts 359°
2026-04-26 13:29 33.79556 -97.06537 20818 ft 373 kts 359°
2026-04-26 13:29 33.83029 -97.06094 20812 ft 373 kts 359°
2026-04-26 13:29 33.85621 -97.05765 20810 ft 374 kts 359°
2026-04-26 13:30 33.88253 -97.05429 20802 ft 375 kts 359°
2026-04-26 13:30 33.90880 -97.05094 20801 ft 374 kts 359°
2026-04-26 13:30 33.93501 -97.04759 20804 ft 374 kts 359°
2026-04-26 13:30 33.96109 -97.04427 20807 ft 374 kts 359°
2026-04-26 13:31 33.98766 -97.04087 20799 ft 374 kts 359°
2026-04-26 13:31 34.01407 -97.03750 20801 ft 374 kts 359°
2026-04-26 13:31 34.03987 -97.03419 20797 ft 373 kts 359°
2026-04-26 13:31 34.06577 -97.03088 20804 ft 373 kts 359°
2026-04-26 13:32 34.09220 -97.02750 20810 ft 374 kts 359°
2026-04-26 13:32 34.11816 -97.02417 20810 ft 373 kts 359°
2026-04-26 13:32 34.14430 -97.02082 20802 ft 375 kts 359°
2026-04-26 13:32 34.17080 -97.01743 20810 ft 375 kts 359°
2026-04-26 13:33 34.19701 -97.01405 20807 ft 375 kts 359°
2026-04-26 13:33 34.22290 -97.01073 20814 ft 376 kts 359°
2026-04-26 13:33 34.24894 -97.00738 20803 ft 375 kts 359°
2026-04-26 13:33 34.27517 -97.00401 20806 ft 376 kts 359°
2026-04-26 13:34 34.30167 -97.00060 20806 ft 376 kts 359°
2026-04-26 13:34 34.32812 -96.99719 20804 ft 376 kts 359°
2026-04-26 13:34 34.35464 -96.99377 20801 ft 375 kts 359°
2026-04-26 13:34 34.37199 -96.99153 20803 ft 376 kts 359°
2026-04-26 13:35 34.40686 -96.99070 20801 ft 370 kts 352°
2026-04-26 13:35 34.43268 -96.99161 20799 ft 369 kts 351°
2026-04-26 13:35 34.45864 -96.99258 20799 ft 368 kts 351°
2026-04-26 13:35 34.48437 -96.99352 20801 ft 370 kts 351°
2026-04-26 13:36 34.51024 -96.99445 20803 ft 369 kts 352°
2026-04-26 13:36 34.53629 -96.99539 20806 ft 371 kts 351°
2026-04-26 13:36 34.56188 -96.99631 20803 ft 371 kts 351°
2026-04-26 13:36 34.58769 -96.99723 20797 ft 371 kts 351°
2026-04-26 13:37 34.61362 -96.99815 20795 ft 371 kts 352°
2026-04-26 13:37 34.63963 -96.99908 20795 ft 371 kts 351°
2026-04-26 13:37 34.66542 -96.99999 20804 ft 371 kts 351°
2026-04-26 13:37 34.69169 -97.00094 20803 ft 373 kts 351°
2026-04-26 13:38 34.71755 -97.00185 20799 ft 371 kts 351°
2026-04-26 13:38 34.74344 -97.00278 20807 ft 371 kts 351°
2026-04-26 13:38 34.76956 -97.00371 20810 ft 371 kts 352°
2026-04-26 13:38 34.79527 -97.00462 20807 ft 370 kts 351°
2026-04-26 13:39 34.82239 -97.00559 20811 ft 371 kts 351°
2026-04-26 13:39 34.84854 -97.00654 20818 ft 371 kts 352°
2026-04-26 13:39 34.87457 -97.00746 20813 ft 371 kts 351°
2026-04-26 13:39 34.90039 -97.00839 20813 ft 371 kts 352°
2026-04-26 13:40 34.92713 -97.00935 20804 ft 371 kts 351°
2026-04-26 13:40 34.95338 -97.01029 20803 ft 372 kts 351°
2026-04-26 13:40 34.97950 -97.01123 20803 ft 373 kts 351°
2026-04-26 13:40 35.00630 -97.01219 20805 ft 372 kts 351°
2026-04-26 13:41 35.03263 -97.01314 20804 ft 372 kts 351°
2026-04-26 13:41 35.05915 -97.01408 20802 ft 372 kts 352°
2026-04-26 13:41 35.08543 -97.01503 20799 ft 371 kts 351°
2026-04-26 13:41 35.11138 -97.01596 20801 ft 372 kts 352°
2026-04-26 13:42 35.13771 -97.01691 20800 ft 372 kts 351°
2026-04-26 13:42 35.16384 -97.01786 20803 ft 373 kts 352°
2026-04-26 13:42 35.19001 -97.01880 20806 ft 372 kts 352°
2026-04-26 13:42 35.21693 -97.01977 20805 ft 374 kts 352°
2026-04-26 13:43 35.24322 -97.02072 20800 ft 372 kts 352°
2026-04-26 13:43 35.26970 -97.02168 20798 ft 373 kts 352°
2026-04-26 13:43 35.29556 -97.02261 20805 ft 373 kts 352°
2026-04-26 13:43 35.32154 -97.02355 20802 ft 374 kts 352°
2026-04-26 13:44 35.34800 -97.02451 20795 ft 374 kts 352°
2026-04-26 13:44 35.37436 -97.02548 20799 ft 376 kts 352°
2026-04-26 13:44 35.40059 -97.02642 20804 ft 375 kts 352°
2026-04-26 13:44 35.42681 -97.02737 20802 ft 375 kts 352°
2026-04-26 13:45 35.45326 -97.02833 20803 ft 375 kts 352°
2026-04-26 13:45 35.47975 -97.02929 20802 ft 375 kts 352°
2026-04-26 13:45 35.50596 -97.03024 20801 ft 374 kts 351°
2026-04-26 13:45 35.53230 -97.03120 20806 ft 374 kts 352°
2026-04-26 13:46 35.55861 -97.03216 20806 ft 374 kts 352°
2026-04-26 13:46 35.58507 -97.03312 20810 ft 374 kts 352°
2026-04-26 13:46 35.61115 -97.03405 20814 ft 368 kts 351°
2026-04-26 13:46 35.63626 -97.03498 20818 ft 374 kts 352°
2026-04-26 13:47 35.66251 -97.03594 20814 ft 373 kts 352°
2026-04-26 13:47 35.68843 -97.03690 20812 ft 375 kts 352°
2026-04-26 13:47 35.71462 -97.03785 20815 ft 375 kts 352°
2026-04-26 13:47 35.74079 -97.03881 20818 ft 375 kts 352°
2026-04-26 13:48 35.76712 -97.03977 20820 ft 376 kts 352°
2026-04-26 13:48 35.79332 -97.04073 20819 ft 376 kts 352°
2026-04-26 13:48 35.81940 -97.04169 20817 ft 376 kts 352°
2026-04-26 13:48 35.84601 -97.04266 20820 ft 376 kts 352°
2026-04-26 13:49 35.87262 -97.04363 20822 ft 376 kts 352°
2026-04-26 13:49 35.89914 -97.04460 20817 ft 375 kts 352°
2026-04-26 13:49 35.92542 -97.04556 20820 ft 375 kts 352°
2026-04-26 13:49 35.95217 -97.04655 20825 ft 375 kts 352°
2026-04-26 13:50 35.97825 -97.04751 20830 ft 375 kts 352°
2026-04-26 13:50 36.00462 -97.04849 20834 ft 377 kts 352°
2026-04-26 13:50 36.03076 -97.04945 20832 ft 377 kts 352°
2026-04-26 13:50 36.05757 -97.05044 20832 ft 376 kts 352°
2026-04-26 13:51 36.08393 -97.05141 20835 ft 376 kts 352°
2026-04-26 13:51 36.11045 -97.05238 20834 ft 376 kts 352°
2026-04-26 13:51 36.13663 -97.05334 20830 ft 375 kts 352°
2026-04-26 13:51 36.16303 -97.05432 20832 ft 375 kts 352°
2026-04-26 13:52 36.18948 -97.05531 20831 ft 376 kts 352°
2026-04-26 13:52 36.21578 -97.05627 20833 ft 376 kts 352°
2026-04-26 13:52 36.24186 -97.05724 20834 ft 377 kts 352°
2026-04-26 13:52 36.26841 -97.05823 20830 ft 376 kts 352°
2026-04-26 13:53 36.29469 -97.05920 20829 ft 376 kts 352°
2026-04-26 13:53 36.32108 -97.06018 20822 ft 377 kts 352°
2026-04-26 13:53 36.34748 -97.06117 20821 ft 376 kts 352°
2026-04-26 13:53 36.37388 -97.06214 20823 ft 377 kts 352°
2026-04-26 13:54 36.40018 -97.06312 20818 ft 377 kts 352°
2026-04-26 13:54 36.42621 -97.06408 20816 ft 376 kts 352°
2026-04-26 13:54 36.45257 -97.06506 20823 ft 375 kts 352°
2026-04-26 13:55 36.50467 -97.06702 20821 ft 378 kts 352°
2026-04-26 13:55 36.52231 -97.06767 20817 ft 377 kts 352°
2026-04-26 13:55 36.58354 -97.06995 20823 ft 376 kts 352°
2026-04-26 13:56 36.60981 -97.07094 20824 ft 377 kts 353°
2026-04-26 13:56 36.63620 -97.07192 20831 ft 377 kts 353°
2026-04-26 13:56 36.66250 -97.07291 20837 ft 378 kts 353°
2026-04-26 13:56 36.68872 -97.07389 20840 ft 378 kts 353°
2026-04-26 13:57 36.71487 -97.07487 20837 ft 376 kts 353°
2026-04-26 13:57 36.74128 -97.07586 20839 ft 377 kts 352°
2026-04-26 13:57 36.76746 -97.07684 20848 ft 376 kts 352°
2026-04-26 13:57 36.79366 -97.07783 20842 ft 377 kts 353°
2026-04-26 13:58 36.81972 -97.07880 20840 ft 376 kts 353°
2026-04-26 13:58 36.84611 -97.07980 20835 ft 377 kts 353°
2026-04-26 13:58 36.87210 -97.08078 20824 ft 377 kts 353°
2026-04-26 13:58 36.89874 -97.08178 20830 ft 377 kts 353°
2026-04-26 13:59 36.92529 -97.08278 20828 ft 377 kts 353°
2026-04-26 13:59 36.95126 -97.08373 20530 ft 369 kts 353°
2026-04-26 13:59 36.97701 -97.08470 20001 ft 368 kts 353°
2026-04-26 14:00 37.05387 -97.08763 18236 ft 369 kts 353°
2026-04-26 14:00 37.07965 -97.08861 17652 ft 368 kts 353°
2026-04-26 14:00 37.09668 -97.08925 17265 ft 368 kts 353°
2026-04-26 14:01 37.13171 -97.09058 16412 ft 368 kts 353°
2026-04-26 14:01 37.15776 -97.09157 15825 ft 367 kts 354°
2026-04-26 14:01 37.18356 -97.09255 15264 ft 365 kts 354°
2026-04-26 14:01 37.20907 -97.09656 14756 ft 354 kts 341°
2026-04-26 14:02 37.23254 -97.10528 14608 ft 338 kts 338°
2026-04-26 14:02 37.25454 -97.11410 14600 ft 333 kts 338°
2026-04-26 14:02 37.27729 -97.12346 14604 ft 346 kts 337°
2026-04-26 14:02 37.30091 -97.13318 14603 ft 345 kts 337°
2026-04-26 14:03 37.32456 -97.14292 14604 ft 346 kts 338°
2026-04-26 14:03 37.34758 -97.15241 14610 ft 347 kts 337°
2026-04-26 14:03 37.37038 -97.16182 14609 ft 346 kts 337°
2026-04-26 14:03 37.39340 -97.17133 14599 ft 346 kts 337°
2026-04-26 14:04 37.41645 -97.18086 14364 ft 346 kts 337°
2026-04-26 14:04 37.43930 -97.19032 13958 ft 344 kts 338°
2026-04-26 14:04 37.46201 -97.19971 13333 ft 346 kts 338°
2026-04-26 14:04 37.48552 -97.20949 12387 ft 356 kts 338°
2026-04-26 14:05 37.50838 -97.21894 12195 ft 341 kts 338°
2026-04-26 14:05 37.53093 -97.22827 11700 ft 339 kts 338°
2026-04-26 14:05 37.55326 -97.23755 11050 ft 331 kts 339°
2026-04-26 14:05 37.57484 -97.24647 10489 ft 319 kts 340°
2026-04-26 14:06 37.59600 -97.25424 9913 ft 310 kts 342°
2026-04-26 14:06 37.61666 -97.26118 9333 ft 303 kts 349°
2026-04-26 14:06 37.63763 -97.26109 8764 ft 300 kts
2026-04-26 14:06 37.65875 -97.25742 8194 ft 306 kts
2026-04-26 14:07 37.67994 -97.25368 7597 ft 311 kts
2026-04-26 14:07 37.70184 -97.25001 6985 ft 316 kts
2026-04-26 14:07 37.72364 -97.24657 6334 ft 308 kts
2026-04-26 14:07 37.74491 -97.24155 5737 ft 299 kts 15°
2026-04-26 14:08 37.76494 -97.23541 5166 ft 292 kts 16°
2026-04-26 14:08 37.78438 -97.22938 4576 ft 285 kts 16°
2026-04-26 14:08 37.80353 -97.22349 3997 ft 279 kts 16°
2026-04-26 14:08 37.82217 -97.21792 3629 ft 265 kts 16°
2026-04-26 14:09 37.83930 -97.21287 3663 ft 248 kts 16°
2026-04-26 14:09 37.85646 -97.21088 3580 ft 240 kts 353°
2026-04-26 14:09 37.87130 -97.21952 3583 ft 229 kts 322°
2026-04-26 14:09 37.87972 -97.23603 3572 ft 225 kts 290°
2026-04-26 14:10 37.88394 -97.25510 3585 ft 224 kts 286°
2026-04-26 14:10 37.88804 -97.27409 3567 ft 224 kts 286°
2026-04-26 14:10 37.89095 -97.29289 3583 ft 211 kts 268°
2026-04-26 14:10 37.88625 -97.31029 3524 ft 205 kts 237°
2026-04-26 14:11 37.86885 -97.33787 3244 ft 199 kts 209°
2026-04-26 14:11 37.85615 -97.34496 3097 ft 184 kts 198°
2026-04-26 14:11 37.84454 -97.35021 2976 ft 175 kts 196°
2026-04-26 14:12 37.83310 -97.35538 2976 ft 173 kts 196°
2026-04-26 14:12 37.82174 -97.36059 2979 ft 172 kts 197°
2026-04-26 14:12 37.81037 -97.36582 2980 ft 171 kts 197°
2026-04-26 14:12 37.79905 -97.37102 2984 ft 171 kts 196°
2026-04-26 14:13 37.77669 -97.38126 2951 ft 162 kts 196°
2026-04-26 14:13 37.76641 -97.38598 2974 ft 152 kts 196°
2026-04-26 14:13 37.75652 -97.39050 2972 ft 149 kts 196°
2026-04-26 14:14 37.74662 -97.39502 2978 ft 149 kts 196°
2026-04-26 14:14 37.73686 -97.39948 2893 ft 151 kts 196°
2026-04-26 14:14 37.72699 -97.40400 2699 ft 148 kts 196°
2026-04-26 14:14 37.71722 -97.40847 2505 ft 147 kts 196°
2026-04-26 14:15 37.70762 -97.41286 2312 ft 145 kts 197°
2026-04-26 14:15 37.69818 -97.41718 2121 ft 144 kts 197°
2026-04-26 14:15 37.68866 -97.42149 1930 ft 143 kts 197°
2026-04-26 14:15 37.67925 -97.42574 1738 ft 142 kts 198°
2026-04-26 14:16 37.66996 -97.43002 1534 ft 141 kts 197°
2026-04-26 14:16 37.66083 -97.43417 1377 ft 137 kts 198°
2026-04-26 14:16 37.65239 -97.43797 1338 ft 117 kts 197°
2026-04-26 14:16 37.64463 -97.44165 1324 ft 86 kts 200°
2026-04-26 14:17 37.64092 -97.44325 1317 ft 31 kts 197°
2026-04-26 14:17 37.64037 -97.44217 1317 ft 22 kts 32°
2026-04-26 14:17 37.64182 -97.44141 1319 ft 22 kts 18°
2026-04-26 14:17 37.64332 -97.44076 1321 ft 25 kts 20°
2026-04-26 14:18 37.64518 -97.43990 1325 ft 31 kts 20°
2026-04-26 14:18 37.64739 -97.43887 1329 ft 36 kts 20°
2026-04-26 14:18 37.64980 -97.43777 1334 ft 35 kts 20°
2026-04-26 14:18 37.65212 -97.43669 1335 ft 34 kts 20°
2026-04-26 14:19 37.65434 -97.43568 1336 ft 33 kts 21°
2026-04-26 14:19 37.65653 -97.43468 1337 ft 33 kts 20°
2026-04-26 14:19 37.65873 -97.43367 1335 ft 33 kts 19°
2026-04-26 14:19 37.66052 -97.43290 1335 ft 16 kts 18°
2026-04-26 14:20 37.66090 -97.43184 1335 ft 15 kts 127°
2026-04-26 14:20 37.66014 -97.43133 1334 ft 0 kts 159°